Location: Amber Place
(27.9751°N, 82.3711°W)
Time: 16:35:31
(UTC+00:00)

N. Korean satellite - Visible Passes

Search period start: 25 September 2021 00:00
Search period end: 05 October 2021 00:00
Orbit: 449 x 498 km, 97.3° (Epoch: 24 September)

Date Brightness Start Highest point End Pass type
(mag) Time Alt. Az. Time Alt. Az. Time Alt. Az.
25 Sep 9.6 09:54:31 10° NE 09:57:01 18° E 09:59:31 10° SE visible
27 Sep 7.0 10:31:07 10° NNE 10:34:41 67° E 10:38:17 10° S visible
28 Sep 9.1 10:03:51 10° NE 10:06:51 24° E 10:09:51 10° SSE visible
30 Sep 6.5 10:40:48 10° N 10:44:24 85° WNW 10:48:03 10° SSW visible
01 Oct 8.4 10:13:15 10° NNE 10:16:34 34° E 10:19:55 10° SSE visible
02 Oct 9.9 09:46:42 10° ENE 09:48:39 14° E 09:50:36 10° SE visible
03 Oct 6.6 10:50:28 10° N 10:54:02 58° WNW 10:57:37 10° SSW visible
04 Oct 7.6 10:22:39 10° NNE 10:26:11 49° E 10:29:44 10° S visible
